Location: Falniów
(50.3639°N, 19.9642°E)
Time: 18:59:12
(UTC+00:00)

SL-08 R/B - Pass Details

Date: 26 April 2026
Orbit: 667 x 728 km, 98.5° (Epoch: 13 May)

Event Time Altitude Azimuth Distance (km) Brightness Sun altitude
Rises 19:35:59 0° 12° (NNE) 3,164 7.2 -14.6°
Reaches altitude 10° 19:38:17 10° 10° (N) 2,238 6.4 -14.8°
Maximum altitude 19:43:10 69° 289° (WNW) 783 3.7 -15.4°
Drops below altitude 10° 19:48:00 10° 207° (SSW) 2,208 5.7 -15.9°
Sets 19:50:15 0° 205° (SSW) 3,117 6.4 -16.2°
